This demonstration page uses our WeatherBlox Daily Observations layout. Learn more.

41.55636, -103.73856

Hourly Observations for March 15, 2019

Temp ( °F °C ) Dew Point ( °F °C ) Humidity (%) Winds ( mph kmh ) Pressure ( in mb ) Visibility ( mi km ) Precip ( " mm )
12:58 am 00:58 Clear 24 -4.7 17 -8.4 76 76 NNW 20 31 30.41 1030 10 16.0934 0 0
1:58 am 01:58 Clear 21 -6 15 -9.2 78 78 NW 16 26 30.43 1031 10 16.0934 0 0
2:58 am 02:58 Mostly Cloudy 18 -7.9 13 -10.6 81 81 WNW 10 17 30.47 1032 10 16.0934 0 0
3:58 am 03:58 Partly Cloudy 17 -8.3 11 -11.4 79 79 WNW 12 19 30.56 1035 10 16.0934 0 0
4:58 am 04:58 Clear 18 -8 12 -11.3 77 77 WNW 14 22 30.55 1035 10 16.0934 0 0
5:58 am 05:58 Mostly Clear 15 -9.6 10 -12.4 80 80 W 13 20 30.58 1036 10 16.0934 0 0
6:58 am 06:58 Mostly Cloudy 17 -8.2 11 -11.6 77 77 W 14 22 30.45 1031 10 16.0934 0 0
7:58 am 07:58 Mostly Cloudy 19 -7.5 12 -11.1 76 76 W 12 19 30.45 1031 10 16.0934 0 0
8:58 am 08:58 Clear 19 -7.1 12 -11.1 73 73 WNW 14 22 30.46 1032 10 16.0934 0 0
9:58 am 09:58 Clear 17 -8.6 9 -12.7 73 73 W 16 26 30.45 1031 10 16.0934 0 0
10:58 am 10:58 Clear 16 -8.8 8 -13.2 71 71 W 13 20 30.45 1031 10 16.0934 0 0
11:58 am 11:58 Clear 14 -10 7 -13.8 74 74 W 9 15 30.49 1033 10 16.0934 0 0
12:58 pm 12:58 Clear 13 -10.4 6 -14.2 74 74 WNW 13 20 30.49 1033 10 16.0934 0 0
1:58 pm 13:58 Sunny 16 -9 8 -13.1 72 72 WNW 15 24 30.51 1033 10 16.0934 0 0
2:58 pm 14:58 Sunny 20 -6.7 11 -11.7 68 68 W 16 26 30.51 1033 10 16.0934 0 0
3:58 pm 15:58 Sunny 22 -5.3 14 -10.2 69 69 W 15 24 30.51 1033 10 16.0934 0 0
4:58 pm 16:58 Sunny 26 -3.4 15 -9.2 65 65 WNW 15 24 30.48 1032 10 16.0934 0 0
5:58 pm 17:58 Sunny 29 -1.9 17 -8.1 63 63 WNW 13 20 30.49 1033 10 16.0934 0 0
6:58 pm 18:58 Sunny 31 -0.6 20 -6.9 63 63 NW 16 26 30.48 1032 10 16.0934 0 0
7:58 pm 19:58 Sunny 32 0 20 -6.7 61 61 WNW 18 30 30.44 1031 10 16.0934 0 0
8:58 pm 20:58 Sunny 33 0.5 19 -7.3 56 56 WNW 23 37 30.4 1030 10 16.0934 0 0
9:58 pm 21:58 Sunny 33 0.4 19 -7.1 58 58 NW 22 35 30.43 1031 10 16.0934 0 0
10:58 pm 22:58 Sunny 33 0.3 20 -6.9 59 59 WNW 18 30 30.42 1030 10 16.0934 0 0
11:58 pm 23:58 Sunny 32 0.1 19 -7.4 57 57 WNW 18 30 30.42 1030 10 16.0934 0 0

Powered by AerisWeather